Location: Champseau
(45.8333°N, 1.7667°E)
Time: 18:06:40
(UTC+00:00)

Cosmos 2082 - Pass Details

Date: 18 April 2021
Orbit: 834 x 855 km, 71.0° (Epoch: 11 May)

Event Time Altitude Azimuth Distance (km) Brightness Sun altitude
Exits shadow 21:39:19 48° 74° (ENE) 1,085 4.0 -25.7°
Drops below altitude 10° 21:43:49 10° 34° (NE) 2,455 6.3 -26.1°
Sets 21:46:18 0° 30° (NNE) 3,395 7.2 -26.4°
